Погода Игнасино

Погода Игнасино : погода сейчас, прогноз погоды и архив. Всё, что Вы хотите узнать о погоде Игнасино!

Хотите узнать прогноз погоды Игнасино? Тогда Вам сюда: Погода Игнасино

Поиск расширенной информации на нашем сайте:

Другие новости

Новости СМИ2

Главная страница сайта

Новости сайта

02.10.2013

Напоминаем, что на нашем новом сайте вы можете получить высокодетализированные прогнозы погоды по пунктам России, СНГ и мира (включающие важные для авиации метеовеличины, такие как направление и скорость ветра, видимость, явления погоды, количество и форма облачности, нижняя и верхняя граница облачности), а также ознакомиться с разнообразными материалами по авиационной метеорологии и подборкой полезных ссылок на эту тему.

Сайт Метеоцентр.Азия посвящён разработке технологий оптимизации авиаметеорологического обслуживания, включая проектирование и перспективное создание нескольких автоматизированных авиаметеорологических систем:
- система выпуска высокодетальных прогностических карт явлений погоды для нижнего воздушного пространства по России и ближнему зарубежью;
- система верификации прогнозов TAF (выпускаемых синоптиками официальных АМСГ РФ и ближнего зарубежья) и AUTOTAF (выпускаемых сайтом Метеоцентр.Азия) - выявление ошибок, онлайн-сопоставление с фактической погодой METAR, автоматическое внесение коррективов в прогнозы при резком отклонении фактической погоды от прогноза, подсчёт оправдываемости прогнозов по элементам и в целом;
- система обработки, анализа и отображения авиаметеорологической информации для применения провайдерами метеорологической информации.

Рекомендуем: Нижнее белье для полных красивое женское нижнее белье.

Погода Игнасино - сегодня

Время (UTC), дата Ветер
(°,м/с) 
Видим.   Явления Облачность Т
(°С)
Тd
(°С)
f(%) Тe
(°С)
Pmin
(гПа)
dP
(гПа)
Po
(мм)
O2
(г/м3)
Тmin Tmax R s Состояние
почвы
03 23.04.17 070 (В) 21000 м  слаб. ливневой дождь  10/10 600 м кучево-дожд. 
[Cb cap]
+2.7 +1.7 93 +2  1006.1  1.5  728  290           
06 23.04.17 080 (В) 26000 м  слаб. ливневой дождь  10/10 600 м кучево-дожд. 
[Cb cap]
+3.3 +1.2 86 +1  1007.7  1.6  729  290           
09 23.04.17 100 (В) 3{10}  20000 м  {ливн. осадки}  10/10 600 м кучево-дожд. 
[Cb cap]
+4.1 +0.8 79 +3  1009.5  1.9  730  290           
12 23.04.17 060 (СВ) 20000 м  в посл. час ливневой дождь  10/10 600 м кучево-дожд. 
[Cb cap]
+2.6 +1.1 90 +2  1012.3  2.4  732  292    +4.2     
15 23.04.17 тихо ()   4000 м  морось  10/10 600 м 
[St]
+1.3 +0.6 95 +1  1013.6  1.2  733  294           
18 23.04.17 030 (СВ) 20000 м  {морось}  10/10 600 м 
[St]
+1 +0.4 96 +2  1015  1.3  734  295           
21 23.04.17 тихо ()   11000 м  слаб. дождь со снегом  10/10 600 м 
[Frnb|Ns]
+0.4 +0 97 1016.6  1.4  735  296           
00 24.04.17 180 (Ю) 20000 м  {снег, дождь}  10/10 600 м кучево-дожд. 
[Cb cap]
+1.9 +0.5 90 +3  1018.2  1.8  736  295  +0.3      влажная 
03 24.04.17 180 (Ю) 20000 м    9/9 600 м кучево-дожд. 
[Cb cap]
+4.4 +1.1 79 +4  1018.4  0.5  737  292           
06 24.04.17 330 (СЗ) 20000 м  {ливн. осадки}  6/6 600 м кучево-дожд. 
[Cb cap]
+6.9 +2.6 74 +6  1018.1  0.1  737  289           
09 24.04.17 220 (ЮЗ) 1{10}  20000 м  {ливн. осадки}  10/5 600 м кучево-дожд., средняя 
[Cb cap|Ac lent]
+5.9 +2.2 77 +7  1018.3  737  290           
12 24.04.17 340 (С) 20000 м  {ливн. осадки}  10/5 600 м кучево-дожд., верхняя 
[Cb cap|Ci sp]
+4 +1.5 84 +4  1019.3  0.7  737  293    +7.2     
15 24.04.17 360 (С) 20000 м    10/10 600 м кучево-дожд. 
[Cb cap]
+2 +0.1 87 +1  1019.6  0.1  737  295           
18 24.04.17 010 (С) 20000 м    10/6 600 м кучево-дожд., верхняя 
[Cb cap|Ci sp]
+4.8 -2.1 61 +6  1019.2  -0.1  737  292           
21 24.04.17 010 (С) 20000 м    10/3 1000 м верхняя 
[Sc|Cs]
+3.8 -0.6 73 +2  1019.6  0.3  738  293           
00 25.04.17 350 (С) 20000 м    10/3 600 м кучево-дожд., верхняя 
[Cb cap|Cs]
+4.8 -0.4 69 +4  1020.1  0.6  738  292  +0.8        влажная 
03 25.04.17 340 (С) 5-10{10}  20000 м  в посл. час ливневой дождь  10/6 600 м кучево-дожд., верхняя 
[Cb cap|Cs]
+4.9 +1.2 77 +3  1020.3  0.2  738  292           
06 25.04.17 050 (СВ) 2{10}  20000 м  {ливн. осадки}  10/8 600 м кучево-дожд., верхняя 
[Cb cap|Cs]
+7.9 -3.3 45 +8  1018.9  -1  737  289           
09 25.04.17 300 (СЗ) 20000 м    10/5 600 м кучево-дожд., средняя, верхняя 
[Cb cap|Ac trans|Ci sp]
+9 -4.2 39 +9  1017.7  -1.1  737  288           
12 25.04.17 350 (С) 20000 м    9/5 600 м кучево-дожд., средняя 
[Cb cap|Ac lent]
+6.7 -4.4 45 +7  1018.5  0.6  737  290    +10.3  0.0     
15 25.04.17 330 (СЗ) 20000 м    4/0 средняя 
[Ac lent]
+2.7 -3.2 65 +3  1019.9  0.8  738  295           
18 25.04.17 270 (З) 20000 м    ясно 
+1.3 -5.4 61 +2  1020.3  0.2  738  296           
21 25.04.17 310 (СЗ) 20000 м    3/0 верхняя 
[Ci fib]
+0.4 -8.1 53 +1  1020.3  -0.1  738  298           
00 26.04.17 280 (З) 20000 м    10/0 верхняя 
[Ci fib]
+5.8 -8.1 36 +4  1019.6  738  292  -2.5        влажная 
03 26.04.17 310 (СЗ) 20000 м    10/3 1000 м верхняя 
[Cu hum|Ci fib]
+11.2 -7.6 26 +10  1016.6  -2.2  736  286           
Время (UTC), дата Ветер
(°,м/с) 
Видим.   Явления Облачность Т
(°С)
Тd
(°С)
f(%) Тe
(°С)
Pmin
(гПа)
dP
(гПа)
Po
(мм)
O2
(г/м3)
Тmin Tmax R s Состояние
почвы

Для получения пояснительной информации подведите курсор к названию столбца.

ПОГОДА Игнасино - архив

Всё, что Вы хотите узнать о погоде Игнасино - удобно и подробно!

Выберите нужную дату (начиная с 1 января 2015* года) и нажмите кнопку "Найти".
Будут отображены архивные сводки погоды по пункту Игнасино, начиная с указанной даты.


Отображать данные в формате CSV (для использования в таблицах Excel)


Внимание! Наш архив погоды предназначен исключительно для личного некоммерческого использования в познавательных целях. Если Вам необходимы официальные справки о состоянии погоды (для производственных, юридических, коммерческих и т.п. целей), обращайтесь в органы Росгидромета.

*Примечание: данная дата относится к архиву по метеостанциям СССР (Россия, СНГ, Балтия).
Архив по метеостанциям Зарубежной Европы и Азии (кроме Китая) хранится 10 дней, по другим регионам земного шара (Китай, Африка, Америка, Австралия, Океания) - 1 день.

Игнасино - район местоположения метеостанции


Название, широта, долгота, высота метеостанции:
Игнасино 53.5°ш. 122.4°д. 295 м над ур. моря [Российская Федерация]

Дополнительная информация

В oтличие oт бoльшинства пoгoдных сайтoв мы публикуем пoдрoбную метеoинфoрмацию в детальнoм прoфессиoнальнoм фoрмате.

Характеристики температуры и влажнoсти вoздуха измеряются на высoте 2 м в тени вдали oт зданий и деревьев.
Скoрoсть ветра измеряется на высoте 10 м (на урoвне рoста челoвека скoрoсть ветра ниже в 1.5-2 раза). Если метеoстанция нахoдится в гoрoде или в лесу, тo скoрoсть ветра занижена на 2-4 м/с пo сравнению с oткрытым местoм. Скoрoсть ветра над акватoриями крупных рек и oзёр, а также на вершинах хoлмoв на 2-5 м/с выше, чем в oбычных услoвиях.
Атмoсфернoе давление в разных тoчках местнoсти мoжет значительнo oтличаться oт давления на метеoстанции, в зависимoсти oт услoвий рельефа (при пoдъёме на 10 м давление пoнижается примернo на 1 мм рт.ст.).